Agana Heights, GU (96910)

5:36 AM ChST on February 14, 2016 (GMT +1000)
Maite | | Change Station
CLOSE
Current Station
Personal Weather Station
Location: Maite, GU
Elevation: 140 ft
Nearby Weather Stations
Active Advisory: High Surf Advisory

Elev 140 ft 13.48 °N, 144.76 °E | Updated 14 seconds ago

Clear
Clear
76.4 °F
Feels Like 78 °F
N
8.0
Wind Variable Wind from East
Gusts 13.0 mph

Today
High -- | Low -- °F
--% Chance of Precip.
Yesterday
High -- | Low -- °F
Precip. -- in
Pressure 29.94 in
Visibility 10.0 miles
Clouds Clear
Heat Index 78 °F
Dew Point 70 °F
Humidity 81%
Rainfall 0.00 in
Snow Depth Not available.
6:44 AM 6:25 PM
Waxing Crescent, 33% visible
METAR PGUM 131854Z 07013KT 10SM CLR 25/21 A2996 RMK AO2 SLP138 T02500206 $
Pressure 29.94 in
Visibility 10.0 miles
Clouds Clear
Heat Index 78 °F
Dew Point 70 °F
Humidity 81%
Rainfall 0.00 in
Snow Depth Not available.
6:44 AM 6:25 PM
Waxing Crescent, 33% visible
METAR PGUM 131854Z 07013KT 10SM CLR 25/21 A2996 RMK AO2 SLP138 T02500206 $

10-Day Weather Forecast

Almanac

Astronomy

Feb. 14, 2016 Rise Set
Actual Time
Civil Twilight
Nautical Twilight
Astronomical Twilight
Moon
Length of Visible Light
Length of Day
Tomorrow will be .
, % of the Moon is Illuminated

Today's Extremes

State Highs State Lows

Community

WunderPhotos

Upload Photos

1,892,642 photos uploaded!

WunderBlog® & News

Nearby

Air Quality

  Air Quality AQ Index Pollutant
Not available.

Snow Depth

Station Depth Elevation

Earthquake Activity

City Distance Mag. Time & Date
Minimum magnitude displayed is 2.5.

Coastal Water Temperatures

Place Temperature

Stations

Nearby Weather Stations

Station Location Temp. Windchill Dew Point Humidity Wind Precip. Elev Updated Type
                   

Watches & Warnings

High Surf Advisory
Issued: 3:41 AM GMT Feb. 14, 2016 – National Weather Service

... High surf advisory remains in effect until 6 PM chst Monday...

* waves and surf... surf along north facing reefs will remain
between 7 and 9 feet.

* Timing... surf will remain at hazardous levels through Monday.

* Impacts... dangerous rip currents and the possibility of minor
erosion along north facing beaches this weekend.

Precautionary/preparedness actions...

A high surf advisory means that high surf will produce localized
beach erosion and dangerous swimming conditions. Exercise caution
near the ocean.



Kleeschulte